Red Bluff, CA

5:10 PM PST on November 21, 2019 (GMT -0800)
Red Bluff Municipal

Weather History for KRBL - September, 2019

Change the Weather History Date:

Sunday, September 29, 2019

  Actual Average Record
Temperature  
Mean Temperature 55 °F -  
Max Temperature 68 °F 89 °F 109 °F (1966)
Min Temperature 42 °F 58 °F 42 °F (2019)
Degree Days  
Heating Degree Days 10    
Growing Degree Days 5 (Base 50)    
Moisture  
Dew Point 41 °F    
Average Humidity 64    
Maximum Humidity 86    
Minimum Humidity 32    
Precipitation  
Precipitation 0.08 in - - ()
Sea Level Pressure  
Sea Level Pressure 29.86 in    
Wind  
Wind Speed 7 mph (NE)    
Max Wind Speed 21 mph    
Max Gust Speed 25 mph    
Visibility 9 miles    
Events Rain    
Averages and records for this station are not official NWS values.
T = Trace of Precipitation, MM = Missing Value Source: NWS Daily Summary

Daily Weather History Graph

Daily Weather History Graph

Search for Another Location

Airport or City:

Astronomy

Sep. 29, 2019 Rise Set
Actual Time 7:03 AM PDT 6:54 PM PDT
Civil Twilight 6:36 AM PDT 7:21 PM PDT
Nautical Twilight 6:04 AM PDT 7:53 PM PDT
Astronomical Twilight 5:32 AM PDT 8:24 PM PDT
Moon 8:00 AM PDT (9/29) 7:58 PM PDT (9/29)
Length of Visible Light 12h 45m
Length of Day
11h 51m
New Moon, 2% of the Moon is Illuminated
Sep 29
New Moon
Oct 5
First Quarter
Oct 13
Full
Oct 21
Last Quarter
Oct 27
New

Hourly Weather History & Observations

Time (PDT) Temp. Windchill Dew Point Humidity Pressure Visibility Wind Dir Wind Speed Gust Speed Precip Events Conditions
12:54 AM 52.0 °F - 36.0 °F 54% 29.83 in 10.0 mi NNE 4.6 mph - N/A   Clear
1:54 AM 48.9 °F - 35.1 °F 59% 29.83 in 10.0 mi North 6.9 mph - N/A   Clear
2:54 AM 46.9 °F - 35.1 °F 63% 29.83 in 10.0 mi NNW 3.5 mph - N/A   Clear
3:54 AM 46.0 °F 43.9 °F 35.1 °F 66% 29.83 in 10.0 mi NNW 4.6 mph - N/A   Clear
4:54 AM 45.0 °F 42.6 °F 35.1 °F 68% 29.84 in 10.0 mi North 4.6 mph - N/A   Clear
5:54 AM 44.1 °F 40.1 °F 35.1 °F 71% 29.85 in 10.0 mi NNE 6.9 mph - N/A   Clear
6:54 AM 44.1 °F - 34.0 °F 68% 29.87 in 10.0 mi Calm Calm - N/A   Clear
7:54 AM 46.0 °F 43.9 °F 35.1 °F 66% 29.89 in 10.0 mi South 4.6 mph - N/A   Clear
8:54 AM 51.1 °F - 39.0 °F 63% 29.91 in 10.0 mi South 8.1 mph - N/A   Clear
9:54 AM 55.9 °F - 41.0 °F 57% 29.91 in 10.0 mi SSE 8.1 mph - N/A   Clear
10:54 AM 60.1 °F - 37.9 °F 44% 29.91 in 10.0 mi SE 10.4 mph - N/A   Clear
11:54 AM 63.0 °F - 37.0 °F 38% 29.89 in 10.0 mi SE 10.4 mph 16.1 mph N/A   Clear
12:54 PM 64.9 °F - 36.0 °F 34% 29.88 in 10.0 mi South 11.5 mph 20.7 mph N/A   Clear
1:54 PM 64.9 °F - 35.1 °F 33% 29.85 in 10.0 mi SSE 17.3 mph - N/A   Mostly Cloudy
2:54 PM 64.9 °F - 35.1 °F 33% 29.83 in 10.0 mi SSE 20.7 mph 25.3 mph N/A   Mostly Cloudy
3:54 PM 64.0 °F - 37.9 °F 38% 29.83 in 10.0 mi SSE 11.5 mph - 0.00 in Rain Light Rain
4:29 PM 52.0 °F - 46.0 °F 80% 29.86 in 2.5 mi NW 12.7 mph - 0.04 in Rain Heavy Rain
4:43 PM 53.1 °F - 48.0 °F 83% 29.86 in 4.0 mi West 6.9 mph - 0.07 in Rain Rain
4:54 PM 54.0 °F - 48.0 °F 80% 29.86 in 3.0 mi Calm Calm - 0.09 in Rain Rain
5:54 PM 53.1 °F - 48.0 °F 83% 29.85 in 10.0 mi NE 10.4 mph - 0.06 in   Overcast
6:54 PM 53.1 °F - 48.0 °F 83% 29.85 in 10.0 mi ENE 10.4 mph - 0.00 in   Overcast
7:54 PM 53.1 °F - 46.9 °F 80% 29.85 in 10.0 mi NE 10.4 mph - 0.00 in   Overcast
8:54 PM 52.0 °F - 46.0 °F 80% 29.86 in 10.0 mi NE 8.1 mph - 0.00 in   Overcast
9:54 PM 51.1 °F - 46.9 °F 86% 29.86 in 10.0 mi NW 4.6 mph - N/A   Scattered Clouds
10:54 PM 51.1 °F - 46.9 °F 86% 29.87 in 10.0 mi NW 5.8 mph - N/A   Overcast
11:54 PM 51.1 °F - 46.9 °F 86% 29.88 in 10.0 mi North 3.5 mph - N/A   Overcast